DELTA 1 DEB, 14909

Orbit data source: Space-Track

DELTA 1 DEB, 14909 is space debris in SSO originally from a launch on Sun, 05 Mar 1978 UTC launched from the Air Force Western Test Range (AFWTR). Debris objects in space refer to the collection of defunct objects orbiting the Earth. Examples of debris include non-operational satellites, rocket bodies, and fragments generated from explosions, collisions, or faulty payload assembly.

Loading next visibility...
Identifier
14909, 1978-026GJ
Orbit
SSO
Country
Flag of USUS
Related business
Manufacturer
Unknown
Mission
Spacecraft
Bus & Motor
Unknown
Mass
Unknown
Launch date (UTC)
1978-03-05 (48 years ago)
Launch vehicle
Unknown
Launch site
Air Force Western Test Range (AFWTR)
Object type
Payload
Rocket body
Debris
Shape & HBR
Unknown shape, 0.1 m
Radar Cross Section
Medium (>0.1 m² and <1 m²)

Expand to show TLE details & history
Last TLE update: 3 days ago

TLE from 3 days ago
0 DELTA 1 DEB
1 14909U 78026GJ  26171.06390873  .00002477  00000-0  14097-2 0  9992
2 14909  98.7147 218.1804 0133344 193.8194 195.9698 14.06308729246603
Epoch: 2026-06-20T01:32Z
TLE epoch observation values (Epoch: 2026-06-20T01:32:01.714Z)
Latitude
29.05016°
Longitude
-77.96945°
Altitude
968.674 km
Speed
7.323 km/s
True Right ascension
14h 13m 17s
True Declination
28° 54' 31"
Sunlit
Object was in daylight at epoch
Visualization orbit readout
Latitude
Unknown
Longitude
Unknown
Altitude
Unknown
Speed
Unknown
Apparent Right ascension
Unknown
Apparent Declination
Unknown
Sunlit
N/A
Visualization observer readout
Local Sidereal Time
00:39:54
Azimuth
Unknown
Elevation
Unknown
Doppler factor
Unknown
Orbital elements
Apogee altitude
965.846 km
Perigee altitude
772.568 km
Semi-major axis
7,247.344 km
Eccentricity
0.01333
Inclination
98.7147°
RAAN
218.1804°
Arg. of periapsis
193.8194°
True anomaly
195.55604°
Mean anomaly
195.9698°
Eccentric anomaly
195.76226°
Mean motion
3.51783 °/min
Orbital period
102.34 mins
BSTAR
0.0014097
Loading maneuver chart data...
Computing Atmospheric mass density...
Loading historical data...
Loading historical data...
Loading historical data...
Loading historical data...
Loading historical data...
Loading historical data...
Loading historical data...

Documentation

Showing up to 5 results
|